TimeMST,TemperatureF,Dew PointF,Humidity,Sea Level PressureIn,VisibilityMPH,Wind Direction,Wind SpeedMPH,Gust SpeedMPH,PrecipitationIn,Events,Conditions,WindDirDegrees,DateUTC
12:53 AM,25.0,19.9,81,30.14,10.0,Calm,Calm,-,N/A,,Clear,0,2013-01-25 07:53:00
1:53 AM,21.9,18.0,85,30.15,10.0,Calm,Calm,-,N/A,,Clear,0,2013-01-25 08:53:00
2:53 AM,19.9,17.1,89,30.14,10.0,Calm,Calm,-,N/A,,Clear,0,2013-01-25 09:53:00
3:53 AM,18.0,15.1,88,30.12,10.0,Calm,Calm,-,N/A,,Clear,0,2013-01-25 10:53:00
4:53 AM,18.0,15.1,88,30.12,10.0,Calm,Calm,-,N/A,,Clear,0,2013-01-25 11:53:00
5:53 AM,17.1,14.0,88,30.13,10.0,Calm,Calm,-,N/A,,Clear,0,2013-01-25 12:53:00
6:53 AM,19.9,16.0,85,30.13,10.0,Calm,Calm,-,N/A,,Clear,0,2013-01-25 13:53:00
7:53 AM,19.0,16.0,88,30.17,10.0,Calm,Calm,-,N/A,,Clear,0,2013-01-25 14:53:00
8:53 AM,21.0,17.1,85,30.19,10.0,South,3.5,-,N/A,,Overcast,170,2013-01-25 15:53:00
9:53 AM,27.0,21.9,81,30.20,10.0,Calm,Calm,-,N/A,,Scattered Clouds,0,2013-01-25 16:53:00
10:53 AM,30.0,25.0,82,30.18,10.0,North,-9999.0,-,N/A,,Clear,0,2013-01-25 17:53:00
11:53 AM,39.9,26.1,58,30.12,10.0,Calm,Calm,-,N/A,,Clear,0,2013-01-25 18:53:00
12:53 PM,43.0,24.1,47,30.09,10.0,North,5.8,-,N/A,,Clear,360,2013-01-25 19:53:00
1:53 PM,46.9,25.0,42,30.06,10.0,NNW,3.5,-,N/A,,Clear,330,2013-01-25 20:53:00
2:53 PM,50.0,24.1,36,30.04,10.0,South,3.5,-,N/A,,Clear,170,2013-01-25 21:53:00
3:53 PM,52.0,25.0,35,30.04,10.0,Calm,Calm,-,N/A,,Clear,0,2013-01-25 22:53:00
4:53 PM,43.0,25.0,49,30.06,10.0,Calm,Calm,-,N/A,,Clear,0,2013-01-25 23:53:00
5:53 PM,37.0,24.1,59,30.08,10.0,South,3.5,-,N/A,,Clear,170,2013-01-26 00:53:00
6:53 PM,34.0,24.1,67,30.07,10.0,Calm,Calm,-,N/A,,Clear,0,2013-01-26 01:53:00
7:53 PM,34.0,24.1,67,30.05,10.0,NW,8.1,-,N/A,,Overcast,310,2013-01-26 02:53:00
8:53 PM,30.9,24.1,76,30.05,10.0,NNW,3.5,-,N/A,,Overcast,340,2013-01-26 03:53:00
9:53 PM,30.9,24.1,76,30.03,10.0,Calm,Calm,-,N/A,,Scattered Clouds,0,2013-01-26 04:53:00
10:53 PM,27.0,21.9,81,30.01,10.0,Calm,Calm,-,N/A,,Partly Cloudy,0,2013-01-26 05:53:00
11:53 PM,28.9,21.9,75,29.97,10.0,Calm,Calm,-,N/A,,Clear,0,2013-01-26 06:53:00